• Em Portugal
  • Lista de países
  • Para 7 dias
  • Temperatura da água
  • Mapas de satélite
  • Mapa do tempo
  • Widgets de tempo
  • user-avatar
    Iniciar Sessão

    Previsão horária em Stara Zagora

    Hoje, 14 Novembro, Quarta-feira

    Tempo Temperatura Precipitação Vento Pressão Humidade
    00:00 +9°C° 0 mm 1 m/s 751 mmHg 82%
    01:00 +8°C° 0 mm 1 m/s 751 mmHg 84%
    02:00 +8°C° 0 mm 1 m/s 751 mmHg 86%
    03:00 +8°C° 0 mm 1 m/s 750 mmHg 87%
    04:00 +7°C° 0 mm 1 m/s 750 mmHg 87%
    05:00 +6°C° 0 mm 0 m/s 750 mmHg 88%
    06:00 +6°C° 0 mm 0 m/s 749 mmHg 87%
    07:00 +6°C° 0 mm 0 m/s 749 mmHg 86%
    08:00 +7°C° 0 mm 0 m/s 749 mmHg 85%
    09:00 +8°C° 0 mm 0 m/s 749 mmHg 78%
    10:00 +10°C° 0 mm 1 m/s 749 mmHg 71%
    11:00 +12°C° 0 mm 1 m/s 749 mmHg 64%
    12:00 +13°C° 0 mm 1 m/s 748 mmHg 61%
    13:00 +13°C° 0 mm 1 m/s 748 mmHg 59%
    14:00 +14°C° 0 mm 1 m/s 748 mmHg 56%
    15:00 +13°C° 0 mm 1 m/s 747 mmHg 59%
    16:00 +13°C° 0 mm 1 m/s 747 mmHg 62%
    17:00 +12°C° 0 mm 1 m/s 747 mmHg 65%
    18:00 +12°C° 0 mm 1 m/s 747 mmHg 67%
    19:00 +11°C° 0 mm 1 m/s 747 mmHg 69%
    20:00 +11°C° 0 mm 1 m/s 747 mmHg 71%
    21:00 +11°C° 0 mm 1 m/s 747 mmHg 72%
    22:00 +11°C° 0 mm 1 m/s 747 mmHg 73%
    23:00 +9°C° 0 mm 0 m/s 747 mmHg 75%

    Amanhã, 15 Novembro, Quinta-feira

    Tempo Temperatura Precipitação Vento Pressão Humidade
    00:00 +9°C° 0 mm 0 m/s 747 mmHg 75%
    01:00 +9°C° 0 mm 0 m/s 747 mmHg 76%
    02:00 +9°C° 0 mm 0 m/s 747 mmHg 76%
    03:00 +10°C° 0.3 mm 1 m/s 746 mmHg 78%
    04:00 +10°C° 0.3 mm 1 m/s 746 mmHg 79%
    05:00 +9°C° 0.3 mm 1 m/s 746 mmHg 81%
    06:00 +8°C° 2.4 mm 2 m/s 746 mmHg 82%
    07:00 +8°C° 2.4 mm 2 m/s 746 mmHg 84%
    08:00 +7°C° 2.4 mm 3 m/s 746 mmHg 85%
    09:00 +8°C° 0.6 mm 3 m/s 747 mmHg 81%
    10:00 +7°C° 0.6 mm 4 m/s 747 mmHg 76%
    11:00 +8°C° 0.6 mm 4 m/s 748 mmHg 71%
    12:00 +8°C° 0 mm 4 m/s 747 mmHg 68%
    13:00 +10°C° 0 mm 4 m/s 747 mmHg 64%
    14:00 +9°C° 0 mm 5 m/s 747 mmHg 60%
    15:00 +8°C° 0 mm 4 m/s 747 mmHg 63%
    16:00 +9°C° 0 mm 3 m/s 747 mmHg 66%
    17:00 +8°C° 0 mm 3 m/s 747 mmHg 68%
    18:00 +8°C° 0 mm 3 m/s 747 mmHg 71%
    19:00 +7°C° 0 mm 2 m/s 748 mmHg 74%
    20:00 +7°C° 0 mm 2 m/s 748 mmHg 76%
    21:00 +7°C° 0 mm 2 m/s 748 mmHg 77%
    22:00 +6°C° 0 mm 2 m/s 748 mmHg 78%
    23:00 +6°C° 0 mm 2 m/s 748 mmHg 79%

    Depois de amanhã, 16 Novembro, Sexta-feira

    Tempo Temperatura Precipitação Vento Pressão Humidade
    00:00 +6°C° 0 mm 2 m/s 748 mmHg 80%
    01:00 +6°C° 0 mm 2 m/s 748 mmHg 81%
    02:00 +5°C° 0 mm 2 m/s 748 mmHg 82%
    03:00 +5°C° 0 mm 2 m/s 748 mmHg 81%
    04:00 +5°C° 0 mm 2 m/s 749 mmHg 81%
    05:00 +5°C° 0 mm 2 m/s 749 mmHg 81%
    06:00 +5°C° 0 mm 2 m/s 749 mmHg 80%
    07:00 +5°C° 0 mm 2 m/s 749 mmHg 79%
    08:00 +4°C° 0 mm 3 m/s 750 mmHg 78%
    09:00 +5°C° 0 mm 3 m/s 750 mmHg 72%
    10:00 +6°C° 0 mm 4 m/s 750 mmHg 67%
    11:00 +6°C° 0 mm 5 m/s 750 mmHg 61%
    12:00 +6°C° 0 mm 5 m/s 750 mmHg 60%
    13:00 +6°C° 0 mm 5 m/s 750 mmHg 60%
    14:00 +6°C° 0 mm 5 m/s 750 mmHg 59%
    15:00 +6°C° 0.1 mm 5 m/s 750 mmHg 62%
    16:00 +5°C° 0.1 mm 4 m/s 750 mmHg 64%
    17:00 +4°C° 0.1 mm 4 m/s 750 mmHg 67%
    18:00 +4°C° 0 mm 4 m/s 750 mmHg 66%
    19:00 +4°C° 0 mm 4 m/s 751 mmHg 65%
    20:00 +4°C° 0 mm 3 m/s 751 mmHg 64%
    21:00 +3°C° 0 mm 3 m/s 751 mmHg 65%
    22:00 +3°C° 0 mm 3 m/s 751 mmHg 65%
    23:00 +3°C° 0 mm 3 m/s 751 mmHg 65%

    17 Novembro, Sábado

    Tempo Temperatura Precipitação Vento Pressão Humidade
    00:00 +2°C° 0 mm 3 m/s 752 mmHg 66%
    01:00 +2°C° 0 mm 3 m/s 752 mmHg 67%
    02:00 +2°C° 0 mm 3 m/s 752 mmHg 69%
    03:00 +2°C° 0 mm 3 m/s 752 mmHg 69%
    04:00 +1°C° 0 mm 3 m/s 752 mmHg 70%
    05:00 +1°C° 0 mm 3 m/s 752 mmHg 71%
    06:00 +1°C° 0 mm 3 m/s 752 mmHg 70%
    07:00 +1°C° 0 mm 3 m/s 752 mmHg 70%
    08:00 +1°C° 0 mm 3 m/s 752 mmHg 69%
    09:00 +2°C° 0 mm 3 m/s 753 mmHg 66%
    10:00 +3°C° 0 mm 3 m/s 753 mmHg 62%
    11:00 +4°C° 0 mm 3 m/s 753 mmHg 58%
    12:00 +4°C° 0 mm 3 m/s 752 mmHg 57%
    13:00 +5°C° 0 mm 3 m/s 752 mmHg 56%
    14:00 +5°C° 0 mm 3 m/s 752 mmHg 55%
    15:00 +4°C° 0 mm 3 m/s 752 mmHg 58%
    16:00 +4°C° 0 mm 3 m/s 752 mmHg 62%
    17:00 +4°C° 0 mm 2 m/s 752 mmHg 65%
    18:00 +3°C° 0 mm 2 m/s 752 mmHg 68%
    19:00 +3°C° 0 mm 2 m/s 753 mmHg 71%
    20:00 +2°C° 0 mm 2 m/s 753 mmHg 74%
    21:00 +2°C° 0 mm 2 m/s 753 mmHg 73%
    22:00 +3°C° 0 mm 1 m/s 753 mmHg 73%
    23:00 +3°C° 0 mm 1 m/s 753 mmHg 73%

    18 Novembro, Domingo

    Tempo Temperatura Precipitação Vento Pressão Humidade
    00:00 +3°C° 0 mm 1 m/s 753 mmHg 74%
    01:00 +3°C° 0 mm 1 m/s 753 mmHg 75%
    02:00 +2°C° 0 mm 1 m/s 752 mmHg 75%
    03:00 +2°C° 0 mm 1 m/s 752 mmHg 75%
    04:00 +2°C° 0 mm 1 m/s 752 mmHg 75%
    05:00 +2°C° 0 mm 1 m/s 752 mmHg 74%
    06:00 +2°C° 0 mm 1 m/s 752 mmHg 72%
    07:00 +2°C° 0 mm 1 m/s 752 mmHg 70%
    08:00 +2°C° 0 mm 1 m/s 752 mmHg 68%
    09:00 +4°C° 0 mm 1 m/s 752 mmHg 63%
    10:00 +5°C° 0 mm 1 m/s 751 mmHg 57%
    11:00 +5°C° 0 mm 2 m/s 751 mmHg 52%
    12:00 +6°C° 0 mm 2 m/s 750 mmHg 50%
    13:00 +7°C° 0 mm 2 m/s 750 mmHg 48%
    14:00 +7°C° 0 mm 2 m/s 749 mmHg 46%
    15:00 +6°C° 0 mm 2 m/s 748 mmHg 50%
    16:00 +7°C° 0 mm 1 m/s 748 mmHg 53%
    17:00 +6°C° 0 mm 1 m/s 747 mmHg 56%
    18:00 +5°C° 0 mm 1 m/s 747 mmHg 58%
    19:00 +5°C° 0 mm 1 m/s 747 mmHg 60%
    20:00 +4°C° 0 mm 1 m/s 746 mmHg 62%
    21:00 +4°C° 0 mm 1 m/s 746 mmHg 62%
    22:00 +4°C° 0 mm 1 m/s 746 mmHg 63%
    23:00 +3°C° 0 mm 1 m/s 745 mmHg 64%

    19 Novembro, Segunda-feira

    Tempo Temperatura Precipitação Vento Pressão Humidade
    00:00 +3°C° 0 mm 1 m/s 745 mmHg 64%
    01:00 +3°C° 0 mm 1 m/s 744 mmHg 64%
    02:00 +3°C° 0 mm 1 m/s 743 mmHg 64%
    03:00 +3°C° 0 mm 1 m/s 743 mmHg 64%
    04:00 +2°C° 0 mm 0 m/s 742 mmHg 64%
    05:00 +2°C° 0 mm 0 m/s 742 mmHg 64%
    06:00 +2°C° 0 mm 0 m/s 742 mmHg 64%
    07:00 +3°C° 0 mm 0 m/s 742 mmHg 63%
    08:00 +3°C° 0 mm 0 m/s 741 mmHg 63%
    09:00 +5°C° 0.1 mm 1 m/s 741 mmHg 61%
    10:00 +6°C° 0.1 mm 1 m/s 741 mmHg 58%
    11:00 +6°C° 0.1 mm 1 m/s 741 mmHg 56%
    12:00 +7°C° 0 mm 1 m/s 741 mmHg 57%
    13:00 +7°C° 0 mm 1 m/s 740 mmHg 58%
    14:00 +8°C° 0 mm 1 m/s 740 mmHg 59%
    15:00 +7°C° 0.1 mm 1 m/s 740 mmHg 62%
    16:00 +7°C° 0.1 mm 1 m/s 739 mmHg 66%
    17:00 +6°C° 0.1 mm 1 m/s 739 mmHg 69%
    18:00 +6°C° 0.3 mm 1 m/s 739 mmHg 71%
    19:00 +6°C° 0.3 mm 1 m/s 739 mmHg 73%
    20:00 +6°C° 0.3 mm 1 m/s 739 mmHg 75%
    21:00 +6°C° 0.4 mm 1 m/s 739 mmHg 77%
    22:00 +5°C° 0.4 mm 1 m/s 739 mmHg 79%
    23:00 +5°C° 0.4 mm 1 m/s 739 mmHg 80%
    Mostrar mais